EHI
9 9 11 11 9 5 2 1 1 1 1 0 0 0 1 1 1 2 5 8 11 12 11 9 7 6 6 5 5 4 3 2 1 0 0 0 0 0 0 0 0 1 1
13 12 13 12 9 6 4 2 2 2 1 0 0 0 1 2 2 2 3 6 10 12 12 10 8 8 8 7 6 5 3 2 1 1 0 0 0 0 0 0 0 0 1
18 16 13 10 9 9 9 8 6 3 1 1 1 1 1 2 2 2 4 5 8 9 11 10 8 8 8 7 6 5 4 3 2 2 1 0 0 0 0 0 0 0 0
18 15 11 10 10 11 12 11 8 3 1 2 3 2 2 2 1 3 6 7 7 7 9 9 8 6 5 4 4 4 4 4 4 3 1 0 0 0 0 0 0 0 0
13 11 11 12 11 10 10 10 8 6 5 4 3 3 3 3 2 3 6 8 8 8 8 8 7 6 5 5 4 5 6 7 6 4 1 0 0 0 0 0 0 0 0
9 10 12 15 13 10 9 9 10 11 10 6 3 4 6 6 4 4 5 6 6 8 9 9 9 8 6 6 6 6 6 8 8 5 2 0 0 0 0 0 0 0 0
10 10 12 16 16 14 11 10 11 14 13 9 6 6 7 5 4 6 7 6 6 8 11 12 12 11 8 6 5 5 6 6 7 5 3 1 0 0 0 0 0 0 0
11 9 10 13 16 16 14 11 12 12 11 9 8 8 6 3 3 5 8 8 7 8 10 12 15 16 13 9 5 4 3 3 3 3 3 2 0 0 0 0 0 0 0
10 9 9 10 12 13 13 13 12 10 6 6 8 7 5 2 1 3 5 8 10 10 8 9 14 18 17 13 9 5 2 1 1 1 2 1 0 0 0 1 1 0 0
9 10 10 9 9 9 11 13 13 10 6 5 6 6 6 4 2 1 2 7 12 12 9 7 11 16 17 15 13 9 4 1 0 0 1 1 0 0 0 1 1 0 0
11 11 12 12 11 9 11 15 16 14 9 7 5 5 6 5 3 0 1 5 10 11 10 9 10 13 14 15 14 11 5 1 0 0 1 1 0 0 0 1 1 0 0
13 13 15 17 14 10 11 17 18 15 11 8 6 5 6 6 3 1 0 2 4 7 9 10 11 12 12 13 13 10 5 1 0 0 0 0 0 0 0 0 0 0 0
17 17 18 19 15 11 12 15 15 14 12 9 6 5 6 6 5 3 2 1 1 3 6 7 8 10 11 11 11 8 3 1 0 0 0 0 0 0 0 0 0 0 0
19 19 18 17 14 12 13 13 12 11 12 11 7 4 5 7 6 5 5 2 1 1 3 4 5 7 11 11 8 5 3 1 0 0 0 0 0 0 0 0 0 0 0
20 20 18 16 15 13 13 11 9 9 10 10 7 4 4 5 5 6 7 5 3 2 3 3 4 8 12 10 5 4 5 2 0 0 0 0 0 0 0 0 0 0 0
21 22 20 17 15 13 12 10 6 6 7 8 7 4 3 3 4 5 7 7 5 3 3 2 4 10 14 10 4 5 7 4 1 0 0 0 0 0 0 0 0 0 0
23 23 20 17 13 11 11 9 6 5 6 8 7 6 4 4 5 5 6 5 4 3 4 2 3 9 14 13 9 9 8 6 3 1 0 0 0 0 0 0 0 0 0
23 22 19 16 12 9 9 9 8 7 7 7 8 8 8 7 6 5 4 3 2 3 5 5 5 8 11 12 12 11 8 5 3 1 0 0 0 0 0 0 0 0 0
25 23 20 18 14 10 9 11 11 10 8 7 8 9 10 9 7 6 6 5 4 4 5 6 7 9 9 9 9 9 6 4 2 0 0 0 0 0 0 0 0 0 0
29 26 22 21 19 15 12 13 14 13 11 10 9 10 12 11 8 7 7 8 8 6 5 5 7 9 8 7 7 5 3 3 1 0 0 0 0 0 0 0 0 0 0
32 27 24 23 20 14 9 11 14 15 15 14 12 11 11 11 8 6 6 7 9 8 6 5 6 8 8 8 6 3 2 1 1 1 1 1 1 1 0 0 0 0 0
34 29 26 25 20 12 5 6 10 14 15 16 14 12 11 10 10 8 5 4 5 6 6 6 7 8 8 7 5 3 2 2 2 3 3 2 2 1 0 0 0 0 0
36 33 31 28 22 12 5 3 5 10 14 16 16 14 12 10 12 13 9 5 4 3 4 6 7 8 8 8 7 5 5 4 4 5 5 3 2 2 1 0 0 0 0
36 35 33 29 21 13 8 4 3 8 13 16 17 17 15 12 13 14 12 11 10 7 5 5 7 8 7 7 8 7 6 5 6 8 8 6 4 4 2 0 0 0 0
36 35 32 26 18 13 11 7 5 8 13 15 16 16 15 14 13 12 13 15 15 13 10 6 5 6 5 5 6 7 6 5 6 10 12 9 6 5 2 0 0 0 0
37 35 30 22 16 14 13 7 5 10 13 14 15 15 14 13 12 11 13 16 16 15 12 7 4 2 2 2 4 5 6 5 6 11 13 12 7 4 2 1 0 0 0
Wind_Speed
2 2 2 2 2 3 3 3 3 3 3 3 2 3 3 3 3 4 4 8 8 7 7 7 7 8 8 7 7 6 6 6 6 5 5 5 4 4 4 4 4 5 6
3 2 2 2 2 3 3 4 4 3 3 2 2 2 2 2 3 4 5 5 6 6 7 7 7 7 7 7 6 6 5 6 5 5 5 5 4 4 4 3 3 4 4
3 2 2 3 2 2 4 3 4 3 2 2 2 2 2 2 3 3 4 3 4 5 6 7 7 7 7 7 6 6 5 5 5 5 5 5 5 4 4 4 4 4 4
4 3 3 3 2 2 3 3 3 2 2 2 2 2 2 2 3 2 2 3 3 3 5 7 7 7 6 6 6 6 6 5 5 4 5 5 6 6 5 5 4 5 5
4 3 3 2 2 2 2 3 3 2 2 2 2 2 2 2 2 2 2 3 3 3 4 5 7 7 6 5 6 6 6 5 5 4 4 4 4 5 5 5 5 4 5
4 3 2 2 2 2 2 2 2 2 2 2 2 2 2 1 1 1 1 2 2 3 4 4 4 4 5 4 5 5 6 6 5 5 5 4 4 4 5 5 5 4 4
3 3 3 2 2 3 2 2 2 2 1 1 1 2 1 1 1 1 1 1 1 1 3 4 3 2 3 4 3 4 4 5 5 5 5 5 4 4 4 5 5 5 4
2 3 3 2 2 2 2 2 2 1 1 1 1 1 1 0 1 1 1 1 1 1 2 3 3 3 2 2 3 4 3 3 4 4 4 3 3 3 3 3 3 3 5
2 2 3 2 2 1 2 1 1 0 0 1 1 1 1 1 1 1 1 2 2 1 1 2 3 3 3 2 2 3 4 3 2 2 2 2 1 1 1 1 1 1 2
2 2 2 1 1 1 1 1 1 0 1 1 1 1 1 2 2 1 1 1 1 1 1 2 2 3 3 3 4 5 5 3 3 3 3 2 2 2 2 2 0 0 0
2 2 2 1 1 1 1 0 1 0 0 1 0 0 0 1 1 2 1 1 1 1 1 2 2 3 3 3 4 5 6 5 4 4 4 4 4 3 3 3 2 2 2
2 2 2 2 1 1 1 1 1 0 1 1 1 1 1 1 1 1 2 1 1 0 1 1 2 3 3 4 5 9 8 7 6 5 5 5 5 4 4 4 4 3 3
2 2 2 2 1 1 1 1 1 1 1 1 1 1 1 1 0 1 2 1 1 0 1 1 2 2 3 4 5 10 8 8 7 6 6 6 6 5 5 5 5 5 5
2 3 3 2 2 1 1 2 1 1 1 1 1 1 1 2 1 1 2 2 1 0 1 1 2 2 2 4 6 8 6 8 7 7 7 7 6 7 7 6 6 6 6
3 3 3 3 2 2 1 2 1 1 2 1 2 2 1 1 1 0 1 2 2 1 1 1 1 2 3 3 6 4 5 8 8 7 7 7 7 7 6 6 6 6 7
2 3 3 2 2 2 2 1 1 1 1 1 1 2 2 2 2 1 1 0 1 2 1 1 1 2 3 4 5 4 5 9 8 7 6 6 6 6 6 5 5 6 6
3 3 3 3 2 2 2 2 1 1 1 1 1 2 2 2 2 2 1 1 1 2 2 1 1 2 2 2 3 3 4 4 4 7 6 6 6 5 5 5 5 5 5
3 3 3 3 3 3 2 2 2 2 2 2 2 2 2 2 2 2 1 1 1 1 3 3 2 2 2 2 3 3 4 3 4 7 8 7 6 5 5 4 5 5 4
3 3 3 3 3 3 2 2 2 2 2 2 2 2 2 2 2 1 2 2 2 1 2 3 3 2 1 1 2 2 2 2 3 5 8 7 6 6 5 5 5 4 4
4 3 3 3 3 3 2 2 2 2 2 2 2 3 3 2 2 1 1 1 1 1 2 2 2 2 1 1 2 1 1 1 1 3 4 6 6 6 6 5 5 5 4
5 3 3 3 2 2 1 1 1 2 2 2 2 3 3 4 5 4 2 2 2 2 1 1 2 2 1 1 1 1 1 1 0 1 2 3 3 3 3 4 5 5 4
4 4 3 3 3 2 3 4 2 2 1 1 1 2 2 3 5 6 6 5 4 2 1 1 1 1 1 1 0 1 1 1 1 0 1 2 3 3 3 3 6 6 6
5 4 4 4 4 3 4 4 3 1 2 2 2 2 1 3 3 3 4 4 4 4 3 2 1 1 1 0 1 1 0 1 1 1 1 2 2 2 2 4 8 8 7
4 4 4 4 4 3 3 3 2 1 2 2 2 2 2 3 4 3 2 3 3 3 1 1 1 1 0 0 0 1 2 1 1 1 1 1 1 1 2 3 7 8 7
4 4 4 3 4 2 2 2 1 1 2 2 2 3 2 2 4 3 2 2 2 2 3 4 3 2 2 2 1 0 1 1 1 1 0 1 1 1 1 2 4 9 8
4 4 4 4 4 3 2 2 0 1 2 2 2 2 3 3 3 3 1 1 1 1 1 2 1 1 2 2 2 1 1 1 0 0 0 0 1 0 0 1 2 4 4
Wind_Direction
73 92 96 114 118 123 131 122 114 113 106 95 92 97 84 91 106 115 130 141 145 155 163 167 172 180 183 182 182 187 190 190 188 183 191 200 203 204 205 213 212 209 211
77 84 110 105 106 123 122 121 125 122 119 117 105 92 96 103 107 121 132 147 152 165 175 178 177 176 176 174 174 176 184 194 193 190 200 206 208 210 211 215 207 209 216
72 80 97 98 101 115 116 118 116 118 132 125 122 126 113 96 104 110 134 148 164 177 184 185 185 182 181 183 183 184 190 197 199 203 212 212 215 213 210 215 215 214 216
68 70 81 83 90 111 114 117 114 114 116 115 132 143 119 109 108 127 134 158 164 170 184 188 190 184 188 194 196 196 196 197 196 204 211 211 211 211 214 216 221 225 226
65 74 85 84 99 102 103 112 106 119 129 124 139 144 127 124 137 150 149 159 160 163 162 172 179 182 187 195 198 200 199 196 194 196 198 195 205 210 213 213 221 230 231
60 61 96 92 91 98 98 102 116 125 136 143 152 116 100 105 138 128 152 140 165 169 165 162 171 176 177 179 188 197 201 197 191 194 200 205 213 218 218 218 222 225 229
65 67 70 95 90 100 103 114 115 134 140 127 103 83 92 122 132 107 96 103 112 125 134 143 158 161 156 168 172 176 188 196 197 199 204 211 217 221 222 221 221 221 221
72 78 77 72 78 104 100 95 108 133 160 149 131 123 127 115 29 137 128 122 101 100 116 127 119 111 104 127 129 144 151 169 188 200 205 210 214 222 225 225 222 223 219
86 75 81 64 61 79 105 120 134 132 164 190 177 149 148 163 133 88 90 91 85 79 107 122 123 121 120 113 129 133 135 129 143 168 184 187 189 195 177 200 224 233 223
102 96 99 80 72 65 102 187 137 231 193 234 223 197 174 155 154 135 66 92 104 84 84 106 119 120 122 118 112 111 121 116 107 105 99 97 92 83 84 79 67 68 351
128 116 118 118 96 91 114 26 82 316 330 315 304 266 217 208 171 154 157 122 85 80 105 113 112 121 130 125 122 113 115 109 102 98 87 79 76 74 86 77 62 51 38
105 100 95 87 82 85 92 74 88 76 17 352 334 303 255 225 185 154 148 145 122 70 98 103 124 126 118 107 112 113 114 106 103 104 101 91 81 74 81 81 71 60 43
125 109 98 89 74 67 85 84 87 52 14 343 329 322 319 305 196 136 137 151 158 164 89 73 79 98 113 110 111 114 113 110 103 103 103 96 87 80 80 78 68 60 51
121 118 120 115 100 74 83 90 83 78 52 4 351 355 340 318 349 121 145 142 141 131 94 121 87 84 99 110 114 121 115 115 110 106 103 99 92 85 81 78 73 68 60
120 114 116 115 114 101 84 97 75 56 54 26 7 12 357 332 345 1 129 147 150 162 184 156 117 112 105 99 118 120 115 118 120 115 109 105 102 95 90 87 82 76 70
92 112 110 105 102 95 85 83 84 74 74 42 23 18 14 8 8 12 58 111 136 145 152 97 100 132 120 119 127 127 120 127 130 129 124 117 110 103 97 91 84 77 72
109 109 108 103 101 96 93 91 86 70 73 50 32 53 45 30 17 14 24 41 79 112 130 112 103 112 113 121 131 139 132 135 138 141 140 133 124 117 110 101 93 86 79
116 112 111 106 104 98 93 90 82 66 67 62 50 51 39 34 39 30 21 19 56 116 141 143 139 136 137 150 149 158 151 154 140 146 153 146 137 130 122 114 107 103 93
125 117 109 103 95 91 88 85 80 69 67 65 59 58 47 41 30 35 50 37 46 79 122 133 139 127 134 161 142 144 148 153 157 150 158 158 152 141 134 130 126 122 116
131 123 117 111 107 96 79 87 103 94 81 70 57 57 50 51 34 23 58 54 71 81 106 120 130 140 144 162 139 154 151 161 181 157 155 157 160 159 152 147 143 142 144
144 131 125 119 113 101 57 42 108 115 102 97 90 89 78 74 66 58 49 49 63 81 106 115 132 123 118 134 168 184 147 137 165 163 153 154 160 166 169 169 168 165 163
137 134 129 123 113 89 52 45 38 88 90 88 82 99 114 98 94 88 77 67 66 84 80 88 94 119 122 135 116 139 140 153 194 248 173 184 170 178 180 176 180 180 181
149 143 138 133 114 68 44 43 35 63 69 55 46 37 55 70 84 99 105 92 68 59 78 92 84 81 83 100 162 204 164 157 210 212 202 217 189 190 177 165 173 182 186
154 150 144 143 126 92 55 40 25 98 78 66 55 49 60 49 37 31 79 84 73 51 68 111 103 116 94 99 185 207 202 183 196 214 201 247 228 203 154 149 174 178 182
153 153 150 145 128 105 77 81 24 152 115 96 77 58 59 64 28 36 88 99 93 90 80 90 102 135 137 123 105 45 247 194 213 208 190 245 248 236 162 166 179 183 186
154 151 147 143 138 135 112 115 151 197 155 142 119 99 71 55 35 30 91 111 100 71 96 96 104 157 168 155 145 107 349 319 237 201 194 251 243 235 247 181 169 180 194